WA0FW-1 Weather Reports


time (UTC)temp
C
wind
direction
speed
KPH
gust
KPH
rain 1hr
cm
rain 24hr
cm
rain mn
cm
humidity
%
barometer
mb
20220927020837 8 0 0.0 0.0 0.00 0.00 0.00 73 1017.8
20220927015936 8 0 0.0 0.0 0.00 0.00 0.00 72 1017.8
20220927015037 8 0 0.0 0.0 0.00 0.00 0.00 72 1017.8
20220927014137 8 0 0.0 0.0 0.00 0.00 0.00 71 1017.5
20220927013237 9 0 0.0 0.0 0.00 0.00 0.00 70 1017.5
20220927012337 9 0 0.0 0.0 0.00 0.00 0.00 68 1017.5
20220927011436 9 0 0.0 0.0 0.00 0.00 0.00 68 1017.5
20220927010537 9 0 0.0 0.0 0.00 0.00 0.00 67 1017.5
20220927005636 10 0 0.0 0.0 0.00 0.00 0.00 65 1017.5
20220927004737 10 0 0.0 0.0 0.00 0.00 0.00 64 1017.5
20220927003836 10 0 0.0 0.0 0.00 0.00 0.00 62 1017.5
20220927002936 11 0 0.0 0.0 0.00 0.00 0.00 58 1017.1
20220927002037 11 0 0.0 0.0 0.00 0.00 0.00 58 1017.1
20220927001137 12 0 0.0 0.0 0.00 0.00 0.00 56 1017.1
20220926235336 13 0 0.0 0.0 0.00 0.00 0.00 52 1017.1
20220926234436 13 0 0.0 0.0 0.00 0.00 0.00 50 1016.8
20220926233536 15 0 0.0 0.0 0.00 0.00 0.00 48 1017.1
20220926232636 15 0 0.0 0.0 0.00 0.00 0.00 46 1016.8
20220926231736 15 0 0.0 0.0 0.00 0.00 0.00 46 1016.8
20220926230836 15 90 0.0 1.6 0.00 0.00 0.00 45 1016.8
20220926225936 15 0 0.0 0.0 0.00 0.00 0.00 45 1016.8
20220926225036 16 111 0.0 3.2 0.00 0.00 0.00 44 1016.8
20220926224136 16 0 0.0 0.0 0.00 0.00 0.00 45 1017.1
20220926223236 17 0 0.0 0.0 0.00 0.00 0.00 44 1016.8
20220926222336 16 0 0.0 0.0 0.00 0.00 0.00 44 1017.1
20220926221436 16 0 0.0 0.0 0.00 0.00 0.00 43 1016.8
20220926220536 16 135 0.0 1.6 0.00 0.00 0.00 43 1016.8
20220926215636 16 0 0.0 0.0 0.00 0.00 0.00 42 1016.8
20220926214736 16 0 0.0 0.0 0.00 0.00 0.00 42 1016.8
20220926213836 17 0 0.0 0.0 0.00 0.00 0.00 41 1017.1
20220926212936 17 135 0.0 1.6 0.00 0.00 0.00 40 1017.1
20220926212036 17 135 1.6 6.4 0.00 0.00 0.00 39 1017.1
20220926211136 18 141 0.0 6.4 0.00 0.00 0.00 39 1017.1
20220926210236 18 0 0.0 0.0 0.00 0.00 0.00 39 1017.1
20220926205336 18 0 0.0 0.0 0.00 0.00 0.00 40 1017.1
20220926204436 18 112 0.0 4.8 0.00 0.00 0.00 40 1017.1
20220926203536 18 46 0.0 8.0 0.00 0.00 0.00 40 1017.1
20220926202636 18 45 0.0 8.0 0.00 0.00 0.00 41 1017.1
20220926201736 17 135 0.0 1.6 0.00 0.00 0.00 41 1017.1
20220926200836 18 270 0.0 4.8 0.00 0.00 0.00 41 1017.1
20220926195936 18 255 0.0 1.6 0.00 0.00 0.00 42 1016.8
20220926195036 17 69 1.6 6.4 0.00 0.00 0.00 43 1017.1
20220926194136 18 238 6.4 6.4 0.00 0.00 0.00 43 1017.1
20220926193236 17 225 3.2 3.2 0.00 0.00 0.00 43 1017.1
20220926192336 17 135 0.0 1.6 0.00 0.00 0.00 44 1017.1
20220926191436 17 156 0.0 3.2 0.00 0.00 0.00 44 1017.5
20220926190536 17 118 1.6 3.2 0.00 0.00 0.00 46 1017.5
20220926185636 16 172 3.2 3.2 0.00 0.00 0.00 46 1017.5
20220926184736 16 135 1.6 3.2 0.00 0.00 0.00 48 1017.5
20220926183836 16 110 3.2 3.2 0.00 0.00 0.00 48 1017.8
20220926182936 16 67 3.2 3.2 0.00 0.00 0.00 49 1017.8
20220926182036 15 0 0.0 0.0 0.00 0.00 0.00 49 1017.8
20220926181136 15 23 0.0 1.6 0.00 0.00 0.00 51 1018.1
20220926180236 15 112 0.0 4.8 0.00 0.00 0.00 51 1017.8
20220926175336 15 0 0.0 0.0 0.00 0.00 0.00 51 1017.8
20220926174436 15 0 0.0 0.0 0.00 0.00 0.00 51 1017.8
20220926173536 15 156 0.0 3.2 0.00 0.00 0.00 51 1017.8
20220926172636 15 111 0.0 1.6 0.00 0.00 0.00 50 1018.1
20220926171736 15 319 1.6 3.2 0.00 0.00 0.00 51 1018.1
20220926170836 15 320 3.2 3.2 0.00 0.00 0.00 53 1018.1
20220926165936 14 1 1.6 1.6 0.00 0.00 0.00 53 1018.1
20220926165036 14 0 0.0 0.0 0.00 0.00 0.00 53 1018.1
20220926164136 14 135 0.0 1.6 0.00 0.00 0.00 52 1018.5
20220926163235 14 125 1.6 1.6 0.00 0.00 0.00 55 1018.5
20220926162336 13 0 0.0 0.0 0.00 0.00 0.00 55 1018.5
20220926161436 13 0 0.0 0.0 0.00 0.00 0.00 57 1018.1
20220926160536 13 0 0.0 0.0 0.00 0.00 0.00 57 1018.1
20220926155635 13 0 0.0 0.0 0.00 0.00 0.00 57 1018.1
20220926154736 12 0 0.0 0.0 0.00 0.00 0.00 59 1018.1
20220926153835 12 135 0.0 3.2 0.00 0.00 0.00 60 1018.5
20220926152936 11 69 3.2 3.2 0.00 0.00 0.00 61 1018.5
20220926152035 11 15 1.6 1.6 0.00 0.00 0.00 61 1018.1
20220926151135 11 1 0.0 1.6 0.00 0.00 0.00 63 1018.1
20220926150235 11 67 0.0 4.8 0.00 0.00 0.00 64 1018.1
20220926145336 11 135 0.0 3.2 0.00 0.00 0.00 65 1018.1
20220926143916 11 117 6.4 6.4 0.00 0.00 0.00 66 1018.1
20220926143016 10 156 0.0 1.6 0.00 0.00 0.00 68 1018.1
20220926142116 10 149 1.6 1.6 0.00 0.00 0.00 69 1018.1
20220926141216 10 0 0.0 0.0 0.00 0.00 0.00 71 1018.1
20220926140316 9 0 0.0 0.0 0.00 0.00 0.00 75 1018.1
20220926135416 8 0 0.0 0.0 0.00 0.00 0.00 75 1017.8
20220926134516 8 0 0.0 0.0 0.00 0.00 0.00 75 1018.1
20220926133616 8 0 0.0 0.0 0.00 0.00 0.00 75 1017.8
20220926132716 8 0 0.0 0.0 0.00 0.00 0.00 76 1017.5
20220926131816 7 0 0.0 0.0 0.00 0.00 0.00 76 1017.5
20220926130916 7 0 0.0 0.0 0.00 0.00 0.00 77 1017.5
20220926130016 7 181 0.0 3.2 0.00 0.00 0.00 77 1017.5
20220926125116 6 0 0.0 0.0 0.00 0.00 0.00 79 1017.1
20220926124216 6 0 0.0 0.0 0.00 0.00 0.00 79 1017.1
20220926123316 6 0 0.0 0.0 0.00 0.00 0.00 80 1017.1
20220926122416 5 0 0.0 0.0 0.00 0.00 0.00 80 1017.1
20220926121516 5 0 0.0 0.0 0.00 0.00 0.00 79 1016.8
20220926120616 5 0 0.0 0.0 0.00 0.00 0.00 79 1016.8
20220926115716 5 0 0.0 0.0 0.00 0.00 0.00 79 1016.8
20220926114816 5 0 0.0 0.0 0.00 0.00 0.00 79 1016.4
20220926113916 5 0 0.0 0.0 0.00 0.00 0.00 79 1016.8
20220926113016 5 0 0.0 0.0 0.00 0.00 0.00 79 1016.8
20220926112116 5 0 0.0 0.0 0.00 0.00 0.00 79 1016.4
20220926111216 5 0 0.0 0.0 0.00 0.00 0.00 79 1016.4
20220926110316 5 0 0.0 0.0 0.00 0.00 0.00 78 1016.4
20220926105415 5 0 0.0 0.0 0.00 0.00 0.00 78 1016.4
20220926104516 6 0 0.0 0.0 0.00 0.00 0.00 78 1016.4
20220926103616 6 0 0.0 0.0 0.00 0.00 0.00 78 1016.4
20220926102716 6 0 0.0 0.0 0.00 0.00 0.00 78 1016.1
20220926101815 6 0 0.0 0.0 0.00 0.00 0.00 78 1016.1
20220926100916 6 0 0.0 0.0 0.00 0.00 0.00 77 1016.1
20220926100016 6 0 0.0 0.0 0.00 0.00 0.00 76 1016.1
20220926095116 6 0 0.0 0.0 0.00 0.00 0.00 76 1016.1
20220926094215 6 0 0.0 0.0 0.00 0.00 0.00 76 1016.1
20220926093316 6 0 0.0 0.0 0.00 0.00 0.00 75 1016.1
20220926092415 6 0 0.0 0.0 0.00 0.00 0.00 75 1015.8
20220926091515 7 0 0.0 0.0 0.00 0.00 0.00 75 1016.1
20220926090615 7 0 0.0 0.0 0.00 0.00 0.00 74 1015.8
20220926085716 7 0 0.0 0.0 0.00 0.00 0.00 74 1015.8
20220926084815 7 0 0.0 0.0 0.00 0.00 0.00 73 1015.8
20220926083915 8 0 0.0 0.0 0.00 0.00 0.00 72 1015.4
20220926083015 8 0 0.0 0.0 0.00 0.00 0.00 71 1015.4
20220926082115 8 0 0.0 0.0 0.00 0.00 0.00 71 1015.4
20220926081215 8 0 0.0 0.0 0.00 0.00 0.00 70 1015.4
20220926080315 8 0 0.0 0.0 0.00 0.00 0.00 69 1015.4
20220926075415 9 0 0.0 0.0 0.00 0.00 0.00 68 1015.4
20220926074515 9 0 0.0 0.0 0.00 0.00 0.00 68 1015.4
20220926073615 9 0 0.0 0.0 0.00 0.00 0.00 68 1015.4
20220926072715 9 0 0.0 0.0 0.00 0.00 0.00 67 1015.4
20220926071815 9 0 0.0 0.0 0.00 0.00 0.00 66 1015.4
20220926070915 10 0 0.0 0.0 0.00 0.00 0.00 65 1015.4
20220926070015 10 0 0.0 0.0 0.00 0.00 0.00 65 1015.4
20220926065115 10 0 0.0 0.0 0.00 0.00 0.00 64 1015.4
20220926064215 10 135 0.0 1.6 0.00 0.00 0.00 64 1015.4
20220926063315 10 0 0.0 0.0 0.00 0.00 0.00 64 1015.4
20220926062415 10 0 0.0 0.0 0.00 0.00 0.00 64 1015.4
20220926061515 10 0 0.0 0.0 0.00 0.00 0.00 63 1015.4
20220926055408 11 0 0.0 0.0 0.00 0.00 0.00 62 1015.4
20220926054508 11 0 0.0 0.0 0.00 0.00 0.00 62 1015.4
20220926053608 11 0 0.0 0.0 0.00 0.00 0.00 61 1015.4
20220926052708 11 0 0.0 0.0 0.00 0.00 0.00 60 1015.4
20220926051808 11 0 0.0 0.0 0.00 0.00 0.00 60 1015.4
20220926050908 11 0 0.0 0.0 0.00 0.00 0.00 60 1015.4
20220926050009 11 0 0.0 0.0 0.00 0.00 0.00 59 1015.4
20220926045108 11 0 0.0 0.0 0.00 0.00 0.00 59 1015.4
20220926044208 11 0 0.0 0.0 0.00 0.00 0.00 59 1015.4
20220926043308 11 0 0.0 0.0 0.00 0.00 0.00 60 1015.4
20220926042408 11 0 0.0 0.0 0.00 0.00 0.00 62 1015.4
20220926041508 11 0 0.0 0.0 0.00 0.00 0.00 62 1015.4
20220926040608 11 0 0.0 0.0 0.00 0.00 0.00 62 1015.4
20220926035708 11 0 0.0 0.0 0.00 0.00 0.00 62 1015.4
20220926034808 11 0 0.0 0.0 0.00 0.00 0.00 62 1015.4
20220926033908 11 0 0.0 0.0 0.00 0.00 0.00 60 1015.4
20220926033008 12 0 0.0 0.0 0.00 0.00 0.00 59 1015.4
20220926032108 12 0 0.0 0.0 0.00 0.00 0.00 57 1015.4
20220926031208 12 0 0.0 0.0 0.00 0.00 0.00 57 1015.4
20220926030308 13 0 0.0 0.0 0.00 0.00 0.00 57 1015.1
20220926025408 13 0 0.0 0.0 0.00 0.00 0.00 57 1015.1
20220926024508 13 0 0.0 0.0 0.00 0.00 0.00 56 1015.1
20220926023608 13 0 0.0 0.0 0.00 0.00 0.00 56 1015.1
20220926022708 13 0 0.0 0.0 0.00 0.00 0.00 57 1015.1
20220926021808 13 0 0.0 0.0 0.00 0.00 0.00 56 1015.1